Weather in Shaykovka

Russia / Kaluga Oblast     54°14′45″N   34°22′48″E
temp.,
°C
wind,
m/s
gust,
m/s
humid.,
%
clouds,
%
prec.,
mm/h
press.,
hPa
HPBL,
m
22 january, sat
sat2200:00−4sw4896100 0.5 995414
03:00−7ssw379696 0.7 997242
06:00−9sw369774 0.2 999106
09:00−13ssw249875 0.3 100259
12:00−10ssw239673 0.1 1005108
15:00−8ssw239484 0.2 1006218
18:00−14ssw1110079 0.1 10109
21:00−16ese1110092 0.1 10129
23 january, sun
sun2300:00−18ene1110099 0.0 10159
03:00−16ene2210088 0.1 101719
06:00−17ene2210097 0.1 101925
09:00−15ene359994 0.1 102353
12:00−11ene249776 0.0 1026113
15:00−9nne249625 0.1 1028107
18:00−16ne2210079 0.0 103218
21:00−17ne22100100 0.0 103531
24 january, mon
mon2400:00−18ne23100100 0.0 103635
03:00−19nne23100100 0.0 103838
06:00−19ne35100100 0.0 103856
09:00−19ne36100100 0.0 104070
12:00−12ene369671 0.0 1039145
15:00−10nne359512 0.0 1037161
18:00−15ne369973 0.0 103762
21:00−17ne3310081 0.0 103645
25 january, tue
tue2500:00−18ne2310094 0.0 103534
03:00−19ene22100100 0.0 103414
06:00−20ene22100100 0.0 103110
09:00−21e11100100 0.0 10319
12:00−12s129411 0.0 102776
15:00−10sw12945 0.0 102549
18:00−16ssw229972 0.0 10249
21:00−13sw2598100 0.0 102389
26 january, wed
wed2600:00−15ssw2398100 0.0 102249
03:00−13ssw2397100 0.0 102175
06:00−12s2296100 0.0 101962
09:00−12wsw1197100 0.0 102040
12:00−9s0191100 0.0 1019134
15:00−8nne0089100 0.0 1019174
18:00−13nne009792 0.0 102010
21:00−17e0010077 0.0 10219